Location: Beutels
(47.8767°N, 9.8584°E)
Time: 00:26:30
(UTC+00:00)

Spot 4 - Pass Details

Date: 19 May 2025
Orbit: 699 x 715 km, 98.3° (Epoch: 22 June)

Event Time Altitude Azimuth Distance (km) Brightness Sun altitude
Exits shadow 22:56:51 47° 221° (SW) 928 4.1 -22.0°
Maximum altitude 22:57:43 54° 260° (W) 851 4.1 -22.0°
Drops below altitude 10° 23:02:25 10° 338° (NNW) 2,184 7.4 -22.1°
Sets 23:04:44 0° 343° (NNW) 3,110 8.5 -22.1°
